Regional Weather Roundup
Issued by NWS

Home | Current Version | Previous Version | Graphics & Text | Print | Product List | Glossary On
Versions: 1 2 3 4 5 6 7 8 9 10 11 12 13 14 15 16 17 18 19 20 21 22 23 24 25 26 27 28 29 30 31 32 33 34 35 36 37 38 39 40 41 42 43 44 45 46 47 48 49 50
000
ASUS43 KOAX 050302
RWRNE

WEATHER ROUNDUP FOR NEBRASKA
NATIONAL WEATHER SERVICE OMAHA NE
1000 PM CDT SAT JUL 04 2015

NOTES: SATELLITE DATA IS BEING USED TO AUGMENT CLOUD COVER ABOVE
       12000 FEET.
       "FAIR" INDICATES FEW OR NO CLOUDS BELOW 12,000 FEET WITH NO
       SIGNIFICANT WEATHER AND/OR OBSTRUCTIONS TO VISIBILITY.

  * THESE STATIONS DO NOT REPORT WEATHER SUCH AS RAIN...SNOW OR FOG.

NEZ001>004-019>022-054>056-050400-
NEBRASKA PANHANDLE

CITY           SKY/WX    TMP DP  RH WIND       PRES   REMARKS
SCOTTSBLUFF    PTCLDY    71  65  81 NE6       29.86R
ALLIANCE       CLEAR     72  63  73 SE8       29.85R
CHADRON        CLEAR     76  65  68 W5        29.80R
KIMBALL          N/A    N/A N/A N/A MISG        N/A
SIDNEY         CLOUDY    82  56  40 VRB3      29.93R
$$

NEZ057>060-069>072-079>082-050400-
SOUTHWEST NEBRASKA

CITY           SKY/WX    TMP DP  RH WIND       PRES   REMARKS
NORTH PLATTE   CLEAR     79  64  60 SE9       29.84S
IMPERIAL       CLOUDY    84  59  42 S15       29.85R
LEXINGTON      CLEAR     79  66  64 SE14      29.87S
MCCOOK         CLOUDY    83  62  49 SE16      29.85R
$$

NEZ005>010-023>029-035>040-094-050400-
NORTH CENTRAL NEBRASKA

CITY           SKY/WX    TMP DP  RH WIND       PRES   REMARKS
VALENTINE      CLOUDY    83  65  54 S15G32    29.80R
AINSWORTH      CLOUDY    81  65  59 S14       29.83R
BROKEN BOW     PTCLDY    77  65  66 SE8       29.87R
ORD            CLOUDY    77  65  66 SE10      29.85S
$$

NEZ041-046>049-061>064-073>077-083>087-050400-
SOUTH CENTRAL NEBRASKA

CITY           SKY/WX    TMP DP  RH WIND       PRES   REMARKS
GRAND ISLAND   MOCLDY    75  63  66 SE10      29.90R
AURORA         PTCLDY    73  66  78 SE10      29.90R
HASTINGS       PTCLDY    76  63  64 SE12      29.90R
KEARNEY *      PTCLDY    75  64  69 SE10      29.89R
$$

NEZ011>018-030>034-042>045-050400-
NORTHEAST NEBRASKA

CITY           SKY/WX    TMP DP  RH WIND       PRES   REMARKS
NORFOLK        CLEAR     72  65  78 SE8       29.89R
ALBION         PTCLDY    72  64  74 SE8       29.90R
BLAIR          CLEAR     72  62  71 SE6       29.93R
COLUMBUS *     CLEAR     73  63  68 SE5       29.87S
FREMONT        CLEAR     75  63  65 SE6       29.92R
TEKAMAH        CLEAR     71  62  73 SE7       29.91R
$$

NEZ050>053-065>068-078-088>093-050400-
SOUTHEAST NEBRASKA

CITY           SKY/WX    TMP DP  RH WIND       PRES   REMARKS
LINCOLN        CLEAR     76  65  68 SE10      29.92R
OMAHA EPPLEY   PTCLDY    73  63  70 S8        29.92R
BEATRICE       CLEAR     75  64  67 SE7       29.93R
FALLS CITY     CLEAR     71  65  81 SE6       29.94R
NEBRASKA CITY  CLEAR     69  61  74 S5        29.94R
PLATTSMOUTH    CLEAR     70  62  75 SE6       29.94R
$$

NEZ044-045-051>053-067-050400-
OMAHA AREA

CITY           SKY/WX    TMP DP  RH WIND       PRES   REMARKS
OMAHA EPPLEY   PTCLDY    73  63  70 S8        29.92R
BLAIR          CLEAR     72  62  71 SE6       29.93R
FREMONT        CLEAR     75  63  65 SE6       29.92R
MILLARD        CLEAR     73  64  74 SE5       29.92R
OFFUTT AFB     CLEAR     69  64  81 SE6       29.92R
PLATTSMOUTH    CLEAR     70  62  75 SE6       29.94R
WAHOO          FAIR      71  66  85 SE7       29.92R
$$



USA.gov is the U.S. government's official web portal to all federal, state and local government web resources and services.